FW1418 Weather Reports


time (UTC)temp
C
wind
direction
speed
KPH
gust
KPH
rain 1hr
cm
rain 24hr
cm
rain mn
cm
humidity
%
barometer
mb
20260509134517 13 241 11.3 19.3 0.00 0.00 0.00 66 998.1
20260509133021 13 191 9.7 29.0 0.00 0.00 0.00 67 997.9
20260509131514 13 220 9.7 16.1 0.00 0.00 0.00 71 997.6
20260509130014 13 227 6.4 19.3 0.00 0.00 0.00 72 997.6
20260509124514 13 201 12.9 20.9 0.00 0.00 0.00 72 997.7
20260509123010 12 173 6.4 16.1 0.00 0.00 0.00 74 997.7
20260509121508 11 240 11.3 27.4 0.00 0.00 0.00 75 997.7
20260509120008 11 215 8.0 24.1 0.00 0.00 0.00 75 997.8
20260509114507 11 150 9.7 25.7 0.00 0.00 0.00 74 997.8
20260509113007 11 208 9.7 24.1 0.00 0.00 0.00 73 997.8
20260509111505 12 144 11.3 27.4 0.00 0.00 0.00 71 997.9
20260509110005 12 190 9.7 20.9 0.00 0.00 0.00 71 997.7
20260509104504 12 213 12.9 27.4 0.00 0.00 0.00 70 997.6
20260509103001 12 161 12.9 25.7 0.00 0.00 0.00 70 998.1
20260509101625 10 215 6.4 17.7 0.00 0.00 0.00 71 998.2
20260509100059 9 177 0.0 4.8 0.00 0.00 0.00 71 998.3
20260509094559 10 177 0.0 3.2 0.00 0.00 0.00 67 998.6
20260509093049 11 177 0.0 4.8 0.00 0.00 0.00 64 999.0
20260509091551 11 188 0.0 8.0 0.00 0.00 0.00 60 999.1
20260509090053 11 184 1.6 12.9 0.00 0.00 0.00 58 999.4
20260509084543 11 206 4.8 14.5 0.00 0.00 0.00 55 999.7
20260509083041 11 160 6.4 22.5 0.00 0.00 0.00 52 999.9
20260509081535 11 163 4.8 16.1 0.00 0.00 0.00 49 1000.2
20260509080043 12 211 9.7 25.7 0.00 0.00 0.00 47 1000.4
20260509074538 12 192 4.8 16.1 0.00 0.00 0.00 45 1000.3
20260509073038 12 205 8.0 16.1 0.00 0.00 0.00 44 1000.4
20260509071526 12 184 8.0 22.5 0.00 0.00 0.00 43 1000.8
20260509070024 12 146 3.2 12.9 0.00 0.00 0.00 46 1001.0
20260509064521 12 187 6.4 16.1 0.00 0.00 0.00 47 1001.3
20260509063028 12 159 4.8 14.5 0.00 0.00 0.00 46 1001.7
20260509061516 11 196 6.4 14.5 0.00 0.00 0.00 46 1001.9
20260509060022 12 165 4.8 14.5 0.00 0.00 0.00 46 1002.2
20260509054511 12 193 4.8 11.3 0.00 0.00 0.00 46 1002.3
20260509053006 12 194 1.6 12.9 0.00 0.00 0.00 47 1002.4
20260509051512 11 168 3.2 11.3 0.00 0.00 0.00 52 1002.6
20260509050004 11 183 1.6 4.8 0.00 0.00 0.00 52 1002.8
20260509044606 12 183 3.2 9.7 0.00 0.00 0.00 49 1003.2
20260509043058 12 199 4.8 14.5 0.00 0.00 0.00 48 1003.4
20260509041550 11 198 4.8 14.5 0.00 0.00 0.00 49 1003.7
20260509034545 12 188 4.8 12.9 0.00 0.00 0.00 46 1004.1
20260509033107 12 164 8.0 12.9 0.00 0.00 0.00 47 1004.2
20260509031542 11 202 4.8 11.3 0.00 0.00 0.00 51 1004.3
20260509030042 10 122 1.6 6.4 0.00 0.00 0.00 57 1004.5
20260509024552 10 59 0.0 3.2 0.00 0.00 0.00 57 1004.5
20260509023041 9 58 0.0 3.2 0.00 0.00 0.00 61 1004.6
20260509021540 8 58 0.0 0.0 0.00 0.00 0.00 66 1004.8
20260509020039 8 58 0.0 0.0 0.00 0.00 0.00 65 1004.7
20260509014542 8 58 0.0 1.6 0.00 0.00 0.00 66 1004.7
20260509013038 8 58 0.0 3.2 0.00 0.00 0.00 68 1004.7
20260509011544 9 59 0.0 3.2 0.00 0.00 0.00 63 1004.7
20260509010040 11 58 0.0 9.7 0.00 0.00 0.00 55 1004.7
20260509003036 14 186 1.6 9.7 0.00 0.00 0.00 39 1004.6
20260509001536 15 200 4.8 19.3 0.00 0.00 0.00 38 1004.6
20260509000033 15 159 4.8 12.9 0.00 0.00 0.00 38 1004.7
20260508234533 15 194 4.8 14.5 0.00 0.00 0.00 37 1005.0
20260508233036 15 215 3.2 11.3 0.00 0.00 0.00 38 1005.1
20260508231530 15 204 9.7 14.5 0.00 0.00 0.00 37 1005.1
20260508230030 16 215 6.4 17.7 0.00 0.00 0.00 36 1005.1
20260508224529 16 205 9.7 22.5 0.00 0.00 0.00 36 1005.1
20260508223030 16 268 8.0 22.5 0.00 0.00 0.00 36 1005.1
20260508221528 17 194 11.3 19.3 0.00 0.00 0.00 34 1005.1
20260508220026 17 240 3.2 19.3 0.00 0.00 0.00 34 1005.4
20260508214532 16 202 8.0 20.9 0.00 0.00 0.00 34 1005.5
20260508213025 17 188 11.3 22.5 0.00 0.00 0.00 32 1005.6
20260508211526 17 192 16.1 27.4 0.00 0.00 0.00 32 1005.6
20260508210032 18 157 4.8 22.5 0.00 0.00 0.00 33 1005.5
20260508204521 17 248 6.4 17.7 0.00 0.00 0.00 34 1005.8
20260508203024 16 258 14.5 25.7 0.00 0.00 0.00 35 1006.1
20260508201517 16 173 9.7 40.2 0.00 0.00 0.00 34 1006.3
20260508200017 16 182 12.9 30.6 0.00 0.00 0.00 34 1006.5
20260508194513 16 212 9.7 33.8 0.00 0.00 0.00 35 1006.7
20260508193013 16 138 14.5 38.6 0.00 0.00 0.00 36 1006.9
20260508191510 16 339 8.0 32.2 0.00 0.00 0.00 36 1007.0
20260508190007 16 281 9.7 30.6 0.00 0.00 0.00 36 1007.4
20260508184509 16 259 11.3 37.0 0.00 0.00 0.00 36 1007.9
20260508183005 16 231 9.7 48.3 0.00 0.00 0.00 36 1007.6
20260508181503 15 266 9.7 29.0 0.00 0.00 0.00 35 1007.9
20260508180003 16 163 9.7 33.8 0.00 0.00 0.00 36 1007.9
20260508174601 15 276 11.3 27.4 0.00 0.00 0.00 36 1008.0
20260508173059 15 217 12.9 32.2 0.00 0.00 0.00 36 1008.2
20260508171557 15 259 17.7 35.4 0.00 0.00 0.00 35 1008.4
20260508170059 14 205 16.1 30.6 0.00 0.00 0.00 37 1008.7
20260508164553 15 206 9.7 32.2 0.00 0.00 0.00 37 1008.7
20260508163104 14 265 12.9 38.6 0.00 0.00 0.00 37 1008.8
20260508161556 13 245 9.7 27.4 0.00 0.00 0.00 39 1009.0
20260508160045 13 238 14.5 32.2 0.00 0.00 0.00 42 1009.2
20260508154543 13 184 8.0 37.0 0.00 0.00 0.00 45 1009.3
20260508153054 12 206 9.7 24.1 0.00 0.00 0.00 45 1009.4
20260508151538 12 267 12.9 30.6 0.00 0.00 0.00 46 1009.6
20260508150037 12 183 6.4 24.1 0.00 0.00 0.00 51 1009.5
20260508144535 12 190 9.7 29.0 0.00 0.00 0.00 51 1009.6
20260508143055 12 226 9.7 35.4 0.00 0.00 0.00 53 1009.8
20260508141531 12 192 4.8 19.3 0.00 0.00 0.00 57 1009.9
20260508140027 11 140 11.3 25.7 0.00 0.00 0.00 59 1009.9